[[{"header":{"parameterUnit":"m.s-1","parameterCategory":1,"la1":30.2991,"la2":30.254,"lo1":-89.0895,"lo2":-89.0444,"dy":0.0017,"dx":0.0017,"nx":28,"ny":28,"refTime":"2025-09-11T09:00:00:Z","depth":0,"parameterNumber":2,"parameterNumberName":"U-component_of_WINDS"},"data":[0,0,0,0,0,0,0,0,0,0,0,0,0,0,0,0,0,0,0,0,0,0,0,0,0,0,0,0,0,0,0,0,0,0,0,0,0,0,0,0,0,0,0,0,0,0,0,0,0,0,0,0,0,0,0,0,0,0,1.1612,1.1611,0,1.1554,1.1553,1.1553,1.1476,1.1475,1.1474,1.1473,1.1412,1.1411,1.1411,0,0,0,0,0,0,0,0,0,0,0,0,0,1.1656,1.1655,1.1612,1.1611,1.1611,1.1554,1.1553,1.1553,1.1477,1.1475,1.1474,1.1472,1.1412,1.1411,1.1411,0,0,0,0,0,0,0,0,0,0,0,0,0,1.1621,1.1655,1.1612,1.1566,1.1561,1.1554,1.1553,1.1552,1.1477,1.1475,1.1473,1.1471,1.1412,1.1412,1.1411,1.1444,0,0,1.1409,1.1408,0,0,0,0,0,0,0,0,1.1623,1.162,1.1573,1.1569,1.1564,1.1521,1.1546,1.1516,1.1477,1.1509,1.1473,1.1471,1.1449,1.1446,1.1439,1.1441,1.1439,1.1409,1.1408,1.1408,1.1408,0,0,0,0,0,0,0,1.1626,1.1622,1.1589,1.1573,1.1567,1.1548,1.1541,1.154,1.149,1.1506,1.15,1.1495,1.1446,1.144,1.1437,1.1438,1.1409,1.1408,1.1408,1.1407,1.1465,1.1467,0,0,0,0,0,0,1.1635,1.1624,1.1591,1.1587,1.159,1.1548,1.1541,1.1536,1.149,1.1481,1.1496,1.1491,1.1442,1.1438,1.1434,1.1471,1.1408,1.1407,1.1407,1.1463,1.1465,1.1468,0,0,0,0,0,0,1.1636,1.1633,1.1593,1.1604,1.1598,1.155,1.1545,1.1536,1.1529,1.1483,1.1473,1.1499,1.144,1.1435,1.1442,1.1467,1.1407,1.1406,1.1461,1.1464,1.1467,1.1543,0,0,0,0,0,0,1.1638,1.1634,1.1646,1.1605,1.1597,1.1603,1.1547,1.1536,1.1529,1.1521,1.1482,1.1474,1.1438,1.1444,1.1442,1.1465,1.1406,1.1458,1.1462,1.1466,1.1538,1.1549,1.1557,0,0,0,0,0,1.164,1.167,1.1647,1.1644,1.1612,1.1605,1.16,1.1559,1.1531,1.1543,1.1513,1.1475,1.1465,1.1445,1.1442,1.1466,1.1457,1.1461,1.1465,1.1534,1.1547,1.1557,0,0,0,0,0,0,1.1714,1.1664,1.1638,1.1656,1.1635,1.1592,1.1605,1.1573,1.1559,1.1553,1.1502,1.1494,1.1507,1.1487,1.1466,1.1496,1.1455,1.1459,1.1509,1.152,1.1529,1.1534,1.1405,0,0,0,0,0,1.1733,1.1732,1.1687,1.1707,1.1698,1.1654,1.1649,1.1619,1.1595,1.1586,1.1557,1.1535,1.1526,1.1522,1.1512,1.1535,1.1526,1.155,1.1559,1.1567,1.1571,1.1583,1.1593,1.1482,1.1482,1.1482,0,0,1.1771,1.1743,1.1745,1.1721,1.1702,1.1701,1.1647,1.1648,1.1647,1.1586,1.1591,1.1569,1.1541,1.1557,1.1562,1.1541,1.16,1.1573,1.158,1.1579,1.1588,1.1599,1.1608,1.1485,1.1484,1.1484,0,0,1.1841,1.182,1.1834,1.1816,1.1787,1.1758,1.1761,1.1723,1.1706,1.1711,1.1665,1.1663,1.1649,1.1632,1.1621,1.1685,1.165,1.1683,1.1732,1.1744,1.1752,1.176,1.1783,1.1792,1.1687,1.1687,1.1687,0,1.1892,1.1889,1.1845,1.185,1.1841,1.1786,1.18,1.1784,1.1754,1.1749,1.1725,1.1708,1.1685,1.1696,1.1712,1.1705,1.1707,1.1687,1.1755,1.1762,1.1768,1.1789,1.1798,1.1691,1.1691,1.169,1.169,0,1.1954,1.1953,1.1968,1.1941,1.1933,1.1943,1.19,1.1897,1.1868,1.1841,1.1847,1.1818,1.1801,1.1801,1.1772,1.1808,1.1796,1.1764,1.1722,1.1784,1.1803,1.1811,1.1697,1.1696,1.1695,1.1694,0,0,1.2068,1.2017,1.2023,1.2011,1.1975,1.1974,1.1981,1.1965,1.1964,1.1945,1.195,1.194,1.1911,1.1899,1.1868,1.1878,1.1931,1.1845,1.1843,1.1862,1.1969,1.1993,1.2003,1.1907,1.1909,1.191,1.1971,0,1.2131,1.2141,1.2101,1.2121,1.212,1.2068,1.2074,1.2053,1.2028,1.2023,1.1995,1.199,1.1952,1.1944,1.1952,1.1923,1.1951,1.1918,1.1911,1.1911,1.192,1.2013,1.2038,1.2098,1.1978,1.198,1.198,0,1.2205,1.2191,1.2212,1.2176,1.2174,1.218,1.2163,1.2159,1.2134,1.2115,1.2103,1.2067,1.2071,1.2031,1.2036,1.2014,1.2009,1.1994,1.1995,1.1993,1.195,1.2013,1.2115,1.2125,1.1992,1.1991,1.199,0,1.2287,1.2273,1.2283,1.2274,1.2233,1.2239,1.2221,1.2195,1.2188,1.2173,1.2168,1.2153,1.2145,1.2135,1.2096,1.207,1.2106,1.2062,1.209,1.2091,1.2099,1.2099,1.2202,1.2096,1.2096,1.2096,1.2096,0,1.2362,1.2376,1.232,1.2326,1.2341,1.2295,1.2311,1.2289,1.2266,1.2266,1.222,1.2222,1.2171,1.2167,1.2136,1.2145,1.2142,1.2126,1.2118,1.2131,1.2133,1.2126,1.2121,1.2098,1.2098,1.2097,1.2097,0,1.2455,1.2418,1.2426,1.2387,1.2377,1.239,1.2356,1.236,1.2332,1.2334,1.2332,1.2289,1.2282,1.2242,1.2225,1.2205,1.2225,1.2208,1.2234,1.2228,1.2258,1.2256,1.236,1.2372,1.2259,1.226,1.2261,0,1.2505,1.2515,1.2477,1.2475,1.246,1.2457,1.245,1.2406,1.2401,1.2374,1.2381,1.2371,1.236,1.2351,1.2318,1.2305,1.2288,1.2325,1.2285,1.2298,1.2288,1.2289,1.2289,1.2334,1.2335,1.2337,1.2338,0,1.2598,1.2579,1.2572,1.2558,1.2551,1.2538,1.2522,1.2523,1.2474,1.247,1.2463,1.2455,1.2438,1.2428,1.241,1.2392,1.2357,1.2351,1.2356,1.2369,1.2383,1.2376,1.2257,1.2348,1.2347,1.2346,1.2346,1.2345,1.2671,1.2678,1.2653,1.2645,1.2629,1.2615,1.2618,1.2591,1.2584,1.2568,1.2542,1.2539,1.2514,1.2486,1.247,1.2467,1.2446,1.2455,1.2457,1.246,1.2466,1.2384,1.2463,1.2463,1.2462,1.2462,1.2462,0,1.2762,1.2743,1.2737,1.2717,1.2711,1.2679,1.266,1.2658,1.2655,1.2635,1.2626,1.2618,1.2608,1.2575,1.2562,1.2565,1.2549,1.2563,1.2562,1.2559,1.2485,1.2481,1.2577,1.2577,1.2577,1.2577,1.2577,1.2577,1.2808,1.2818,1.2796,1.2798,1.2778,1.2775,1.2767,1.2754,1.2738,1.2731,1.2723,1.2702,1.2676,1.2661,1.2651,1.2641,1.2639,1.2659,1.2644,1.2575,1.2564,1.2554,1.255,1.2658,1.2658,1.2718,1.2718,1.2719]},{"header":{"parameterUnit":"m.s-1","parameterCategory":1,"la1":30.2991,"la2":30.254,"lo1":-89.0895,"lo2":-89.0444,"dy":0.0017,"dx":0.0017,"nx":28,"ny":28,"refTime":"2025-09-11T09:00:00:Z","depth":0,"parameterNumber":3,"parameterNumberName":"V-component_of_WINDS"},"data":[0,0,0,0,0,0,0,0,0,0,0,0,0,0,0,0,0,0,0,0,0,0,0,0,0,0,0,0,0,0,0,0,0,0,0,0,0,0,0,0,0,0,0,0,0,0,0,0,0,0,0,0,0,0,0,0,0,0,-2.3046,-2.3047,0,-2.3124,-2.3125,-2.3125,-2.3116,-2.3114,-2.3113,-2.3112,-2.3189,-2.3192,-2.3196,0,0,0,0,0,0,0,0,0,0,0,0,0,-2.2889,-2.2892,-2.3046,-2.3047,-2.3048,-2.3123,-2.3125,-2.3126,-2.3116,-2.3114,-2.3113,-2.3111,-2.3188,-2.3192,-2.3196,0,0,0,0,0,0,0,0,0,0,0,0,0,-2.2961,-2.2893,-2.3046,-2.3052,-2.3054,-2.3123,-2.3125,-2.3126,-2.3116,-2.3114,-2.3112,-2.3111,-2.3187,-2.3192,-2.3196,-2.3264,0,0,-2.3211,-2.3213,0,0,0,0,0,0,0,0,-2.2957,-2.2966,-2.3051,-2.3052,-2.3054,-2.3108,-2.3097,-2.3172,-2.3117,-2.3092,-2.3112,-2.311,-2.3164,-2.317,-2.3189,-2.3267,-2.3271,-2.3212,-2.3215,-2.3217,-2.3218,0,0,0,0,0,0,0,-2.2952,-2.2963,-2.3077,-2.3052,-2.3054,-2.3051,-2.3059,-2.3111,-2.3138,-2.3094,-2.3094,-2.3103,-2.3164,-2.3184,-2.3191,-2.3272,-2.3211,-2.3216,-2.3219,-2.3221,-2.341,-2.3412,0,0,0,0,0,0,-2.2945,-2.2959,-2.3074,-2.3079,-2.3,-2.3055,-2.3065,-2.3093,-2.3137,-2.3142,-2.3105,-2.3103,-2.3177,-2.3185,-2.3193,-2.3276,-2.3217,-2.3221,-2.3224,-2.3408,-2.3411,-2.3413,0,0,0,0,0,0,-2.2942,-2.2956,-2.3071,-2.3019,-2.3034,-2.306,-2.3092,-2.3095,-2.3115,-2.3145,-2.3149,-2.3121,-2.3176,-2.3186,-2.3247,-2.3278,-2.3223,-2.3228,-2.3406,-2.3409,-2.3412,-2.344,0,0,0,0,0,0,-2.2937,-2.2955,-2.2981,-2.302,-2.3036,-2.3124,-2.3094,-2.3098,-2.3124,-2.3121,-2.3161,-2.3166,-2.3175,-2.324,-2.3251,-2.3284,-2.3231,-2.3403,-2.3407,-2.3411,-2.3437,-2.3444,-2.345,0,0,0,0,0,-2.2932,-2.2985,-2.2982,-2.2996,-2.307,-2.3126,-2.3135,-2.3145,-2.3126,-2.3153,-2.3172,-2.3164,-2.3273,-2.3246,-2.3259,-2.3293,-2.3401,-2.3406,-2.3411,-2.3434,-2.3443,-2.345,0,0,0,0,0,0,-2.2948,-2.299,-2.2987,-2.3055,-2.3087,-2.3124,-2.3157,-2.3155,-2.3192,-2.3188,-2.3199,-2.3208,-2.3269,-2.3287,-2.3256,-2.3361,-2.3334,-2.3342,-2.3347,-2.3356,-2.3363,-2.3357,-2.3235,0,0,0,0,0,-2.296,-2.3002,-2.3036,-2.3092,-2.3109,-2.313,-2.3155,-2.3161,-2.3194,-2.3207,-2.3231,-2.3263,-2.3304,-2.3331,-2.3371,-2.3439,-2.3448,-2.347,-2.3476,-2.3482,-2.3488,-2.3526,-2.3536,-2.3429,-2.3429,-2.3429,0,0,-2.2983,-2.3012,-2.3038,-2.3096,-2.3122,-2.3165,-2.3142,-2.3188,-2.3221,-2.3214,-2.3272,-2.3291,-2.3328,-2.3392,-2.3422,-2.3409,-2.352,-2.3488,-2.3492,-2.3496,-2.3532,-2.3543,-2.3552,-2.3432,-2.3432,-2.3431,0,0,-2.3049,-2.3075,-2.3125,-2.3151,-2.319,-2.3205,-2.3217,-2.3255,-2.3267,-2.3326,-2.3322,-2.336,-2.3431,-2.3458,-2.348,-2.3557,-2.3552,-2.357,-2.3606,-2.3643,-2.3651,-2.3659,-2.3686,-2.3696,-2.3576,-2.3577,-2.3577,0,-2.3074,-2.314,-2.3151,-2.3198,-2.3224,-2.3221,-2.3272,-2.3297,-2.3346,-2.3364,-2.3349,-2.3439,-2.3463,-2.3535,-2.3554,-2.3572,-2.3586,-2.3565,-2.3649,-2.3657,-2.3664,-2.3691,-2.3701,-2.3578,-2.3578,-2.3578,-2.3578,0,-2.3168,-2.3214,-2.3249,-2.3299,-2.3328,-2.3377,-2.3395,-2.3424,-2.3427,-2.3443,-2.3504,-2.3533,-2.3579,-2.3596,-2.3599,-2.3668,-2.3659,-2.3647,-2.362,-2.3676,-2.3701,-2.3711,-2.3581,-2.3581,-2.358,-2.3579,0,0,-2.3245,-2.3301,-2.3314,-2.3336,-2.338,-2.3415,-2.3464,-2.351,-2.3534,-2.3569,-2.361,-2.3671,-2.366,-2.3686,-2.3692,-2.3724,-2.3784,-2.3708,-2.3709,-2.3721,-2.3862,-2.3871,-2.3882,-2.3781,-2.3783,-2.3784,-2.3859,0,-2.3316,-2.3402,-2.3414,-2.3491,-2.3533,-2.3532,-2.3574,-2.3605,-2.3621,-2.3659,-2.3677,-2.372,-2.3702,-2.3718,-2.375,-2.377,-2.3812,-2.3765,-2.3819,-2.382,-2.3809,-2.3895,-2.3905,-2.3974,-2.3869,-2.387,-2.3872,0,-2.3409,-2.3447,-2.3528,-2.3567,-2.3585,-2.3623,-2.3666,-2.3703,-2.3738,-2.3747,-2.3777,-2.3779,-2.3829,-2.3801,-2.387,-2.3838,-2.386,-2.3874,-2.3877,-2.3882,-2.3849,-2.3903,-2.3996,-2.4006,-2.3887,-2.3886,-2.3885,0,-2.3457,-2.3529,-2.3587,-2.3606,-2.3652,-2.3679,-2.37,-2.3733,-2.376,-2.3798,-2.3815,-2.3858,-2.3881,-2.3914,-2.3928,-2.3906,-2.3997,-2.3969,-2.4006,-2.4006,-2.4025,-2.4023,-2.4123,-2.404,-2.404,-2.4039,-2.4039,0,-2.3534,-2.3584,-2.3609,-2.3645,-2.3701,-2.3714,-2.3769,-2.3788,-2.3818,-2.3857,-2.3858,-2.3895,-2.3911,-2.395,-2.3961,-2.4017,-2.4027,-2.4036,-2.4039,-2.4036,-2.4035,-2.4051,-2.4047,-2.4042,-2.4042,-2.4041,-2.4041,0,-2.3597,-2.3616,-2.368,-2.3719,-2.373,-2.3769,-2.3802,-2.3837,-2.3853,-2.3903,-2.3915,-2.394,-2.3986,-2.4004,-2.406,-2.4067,-2.4132,-2.413,-2.412,-2.4121,-2.4156,-2.4153,-2.427,-2.4286,-2.4192,-2.4193,-2.4194,0,-2.3645,-2.3683,-2.3727,-2.3754,-2.3775,-2.3818,-2.3846,-2.386,-2.3889,-2.3933,-2.3962,-2.4008,-2.4046,-2.412,-2.4143,-2.4186,-2.4186,-2.4224,-2.4192,-2.4189,-2.4186,-2.4184,-2.4188,-2.4229,-2.423,-2.4231,-2.4232,0,-2.3728,-2.3735,-2.3776,-2.382,-2.3853,-2.3889,-2.3923,-2.3944,-2.3964,-2.3997,-2.4044,-2.4074,-2.4132,-2.4178,-2.4222,-2.4242,-2.4241,-2.4242,-2.4252,-2.425,-2.4243,-2.4247,-2.4136,-2.4239,-2.4238,-2.4237,-2.4237,-2.4237,-2.3785,-2.3819,-2.3855,-2.39,-2.3928,-2.396,-2.3994,-2.4015,-2.4056,-2.4104,-2.4111,-2.4162,-2.4197,-2.4256,-2.4279,-2.4319,-2.4309,-2.4324,-2.4328,-2.4332,-2.4335,-2.4237,-2.4327,-2.4327,-2.4327,-2.4327,-2.4327,0,-2.3867,-2.3891,-2.3932,-2.3981,-2.4016,-2.4012,-2.405,-2.408,-2.4125,-2.4158,-2.4196,-2.4251,-2.4296,-2.4323,-2.4368,-2.4395,-2.4395,-2.4406,-2.4404,-2.4409,-2.4341,-2.4327,-2.4405,-2.4405,-2.4405,-2.4405,-2.4405,-2.4405,-2.3915,-2.3972,-2.3985,-2.4056,-2.4079,-2.413,-2.4152,-2.4182,-2.4209,-2.427,-2.4308,-2.4326,-2.4356,-2.4404,-2.4445,-2.4452,-2.4468,-2.448,-2.4486,-2.4422,-2.4414,-2.4406,-2.4393,-2.4484,-2.4484,-2.4551,-2.4551,-2.4552]}]]